Location: Dover
(48.8500°N, 53.9833°W)
Time: 06:33:19
(UTC+00:00)

ARIANE 6 FM1 Upper Stage - Pass Details

Date: 14 November 2025
Orbit: 522 x 611 km, 62.0° (Epoch: 10 December)

Event Time Altitude Azimuth Distance (km) Brightness Sun altitude
Rises 20:59:57 0° 264° (W) 2,668 8.1 -10.5°
Reaches altitude 10° 21:02:31 10° 279° (W) 1,772 6.4 -10.9°
Maximum altitude 21:05:42 23° 333° (NNW) 1,162 4.4 -11.4°
Drops below altitude 10° 21:08:53 10° 26° (NNE) 1,768 4.8 -11.9°
Enters shadow 21:09:11 - 29° (NNE) 1,862 4.9 -12.0°
